Simultaneous Nadir Overpasses (SNOs) Predictions

Prediction of SNOs between AQUA and METOP-B Satellite Orbit:

Table of predicted SNOs for the next 14.0 days since TLE Epoch: 2/14/2014
Index Date (AQUA) Time (AQUA) Lat,Lon (AQUA) SZA (AQUA ) Date (METOP-B) Time (METOP-B) Lat,Lon (METOP-B) SZA (METOP-B ) Distance(km) Time Diff (sec)
1 02/17/2014 04:05:34 73.71, 113.14 85.84 02/17/2014 04:04:57 73.69, 113.09 85.83 2.84 37
2 02/17/2014 04:55:01 -73.78, -79.38 94.10 02/17/2014 04:55:36 -73.79, -79.34 94.10 1.20 35
3 02/19/2014 23:39:50 73.70, 179.60 84.83 02/19/2014 23:39:16 73.72, 179.60 84.86 2.63 34
4 02/20/2014 00:29:17 -73.77, -12.92 95.11 02/20/2014 00:29:56 -73.78, -12.95 95.11 0.90 39
5 02/22/2014 19:14:05 73.70,-113.96 83.81 02/22/2014 19:13:36 73.69,-114.06 83.81 3.19 29
6 02/22/2014 20:03:32 -73.77, 53.53 96.13 02/22/2014 20:04:15 -73.80, 53.53 96.11 3.07 43
7 02/25/2014 14:48:18 73.71, -47.53 82.77 02/25/2014 14:47:54 73.69, -47.63 82.77 3.59 24
8 02/25/2014 15:37:45 -73.78, 119.96 97.17 02/25/2014 15:38:33 -73.81, 119.96 97.15 3.15 48
9 02/28/2014 09:32:52 -73.11,-147.46 98.92 02/28/2014 09:31:45 -73.07,-149.94 98.84 80.19 67
10 02/28/2014 10:22:31 73.72, 18.89 81.73 02/28/2014 10:22:12 73.73, 18.87 81.74 0.84 19
11 02/28/2014 11:11:58 -73.79,-173.61 98.22 02/28/2014 11:12:52 -73.80,-173.64 98.22 1.01 54




NCC Satellite Simultaneous Nadir Overpasses (SNOs) Prediction Service
